Cloud_Cover
0 0 0 0 0 0 0 0 0 0 0 0 0 2 5 5 5 0 1 3 22 5 5 5 5 90 100 100 100 100 100 100 100 100 100 100 100 100 100 99 100 100 100 100 100
0 0 0 0 0 0 0 0 0 0 0 0 0 0 4 6 5 2 0 3 6 6 5 11 0 69 96 99 100 100 100 100 100 100 100 100 100 100 100 96 97 100 100 100 82
0 0 0 0 0 0 0 0 0 0 0 0 0 0 0 5 5 5 0 1 5 49 5 5 3 2 25 12 65 100 100 100 100 78 100 100 91 87 98 97 49 100 100 100 100
0 0 0 0 0 0 0 0 0 0 0 0 0 0 0 3 5 5 0 0 0 5 34 5 3 0 4 11 7 100 100 100 100 100 100 100 99 91 100 100 100 100 100 100 92
0 0 0 0 0 0 0 0 0 0 0 0 0 0 0 0 5 5 5 0 0 58 47 90 6 5 26 6 5 49 100 100 98 60 100 98 96 97 100 100 100 100 100 83 5
0 0 0 0 0 0 0 0 0 0 0 0 0 0 0 0 3 5 5 0 0 32 100 44 5 5 50 5 10 30 82 97 98 100 99 100 92 98 100 100 100 69 6 5 5
0 0 0 0 0 0 0 0 0 0 0 0 0 0 0 0 0 5 5 5 0 0 97 44 5 5 60 5 41 1 85 92 100 100 98 50 28 97 74 100 94 12 5 5 5
0 0 0 0 0 0 0 0 0 0 0 0 0 0 0 0 0 0 0 1 0 0 0 78 5 9 5 5 5 5 35 100 98 100 91 100 84 95 100 78 26 0 5 5 5
0 0 0 0 0 0 0 0 0 0 0 0 0 0 0 0 0 0 0 0 5 4 2 0 1 23 11 5 5 4 9 78 79 100 100 72 28 5 44 15 27 0 0 0 0
0 0 0 0 0 0 0 0 0 0 0 0 0 0 0 0 0 0 0 0 0 5 5 2 0 1 5 5 5 4 5 10 48 97 56 52 9 1 5 20 99 71 0 0 0
0 0 0 0 0 0 0 0 0 0 0 0 0 0 0 0 0 0 0 0 0 0 5 5 0 0 0 5 70 5 36 30 11 22 15 46 26 0 0 3 55 100 7 0 0
0 0 0 0 0 0 0 0 0 0 0 0 0 0 0 0 0 0 0 0 0 0 0 4 0 0 0 0 31 5 51 40 24 5 5 90 100 100 5 0 0 0 5 29 0
0 0 0 0 0 0 0 0 0 0 0 0 0 0 0 0 0 0 0 0 0 0 0 0 0 2 0 0 4 5 6 95 87 67 81 11 92 5 0 4 0 0 0 0 0
4 0 0 0 0 0 0 0 0 0 0 0 0 0 0 0 0 0 0 0 0 0 0 0 0 0 0 0 0 5 5 83 10 22 9 6 10 5 3 3 4 5 5 0 0
4 0 0 0 2 0 0 0 0 0 0 0 0 0 0 0 0 0 0 0 0 0 0 0 0 0 0 0 0 0 92 5 5 65 80 23 18 97 5 5 47 66 7 2 0
1 0 1 3 0 0 0 0 0 0 0 0 0 0 0 0 0 0 0 0 0 0 0 0 0 0 0 0 0 0 95 10 5 94 100 100 96 3 19 5 48 5 97 16 0
0 0 43 5 0 0 0 0 0 0 0 0 0 0 0 0 0 0 0 0 0 0 0 0 0 0 0 0 0 0 2 22 27 57 100 100 65 97 5 75 12 12 5 5 3
0 9 2 2 0 0 0 0 0 0 0 0 0 0 0 0 0 0 0 0 0 0 0 0 0 0 0 0 0 0 0 0 0 99 100 82 100 100 92 34 0 5 5 7 0
0 1 0 0 0 1 0 0 0 0 0 0 0 0 0 0 0 0 0 0 0 0 0 0 0 0 0 0 0 0 0 0 0 0 84 25 100 100 100 27 2 0 0 5 4
11 1 0 16 15 82 69 32 3 0 0 0 0 0 0 0 0 0 0 0 0 0 0 0 0 0 0 0 0 0 0 0 0 0 15 4 17 100 100 100 6 0 2 93 13
0 0 0 0 5 78 3 0 0 0 0 0 0 0 0 0 0 0 0 0 0 0 0 0 0 0 0 0 0 0 0 0 0 0 0 6 0 100 100 100 6 2 31 30 91
5 4 1 0 0 0 0 0 0 0 0 0 0 0 0 0 0 0 0 0 0 0 0 0 0 0 0 0 0 0 0 0 0 0 0 0 24 100 100 41 0 0 5 24 6
4 2 1 1 1 0 0 0 0 0 0 0 0 0 0 0 0 0 0 0 0 0 0 0 0 0 0 0 0 0 0 0 0 0 0 0 6 43 28 0 0 0 3 14 54
0 5 75 6 3 5 3 1 0 0 0 0 0 0 0 0 0 0 0 0 0 0 0 0 0 0 0 0 0 0 0 0 0 0 0 0 3 0 1 0 0 0 0 4 100
5 5 14 8 26 98 11 5 4 0 0 0 0 0 0 0 0 0 0 0 0 0 0 0 0 0 0 0 0 0 0 0 0 0 0 0 4 5 1 0 0 0 0 4 98
8 5 5 5 66 51 70 5 5 1 5 3 0 0 0 0 0 0 0 0 0 0 0 0 0 0 0 0 0 0 0 0 0 0 0 0 0 0 4 0 0 0 0 0 5
99 58 47 64 100 100 51 30 80 6 22 5 5 1 0 0 0 0 0 0 0 0 0 0 0 0 0 0 0 0 0 0 0 0 0 0 0 0 0 0 0 0 0 1 5